Check out our new BloomSky Weather System.

Active alerts

Fort Bend, TX
  Details for Fort Bend, TX Special Weather Statement


Thunder radar  blitzortung!


Rain radar more information rain snow radar


Visit our other weather sites:

Template documentation
and downloads

And another site



Weather Underground History page Text

Daily Summary for July 17, 2017 Units:  Metric    English   Both
« Previous Day
Next Day »
Daily Weekly Monthly Yearly Custom
  High: Low: Average:
Temperature: -17.8 °C 24.6 °C 29.2 °C
Dew Point: -17.8 °C 23.7 °C 24.7 °C
Humidity: Humidity % 56 % 77 %
Wind Speed: 0 km/h 0 km/h 2.7 km/h
Wind Gust: 0 km/h - -
Wind:- - SSE
Pressure: 0 hPa 1011.1 hPa -
Precipitation: 0 mm    
Historical Graphs
 
 
Tabular Data for July 17, 2017
Time Temperature Dew Point Pressure Wind Wind Speed Wind Gust Humidity Rainfall Rate (Hourly)
-17.8 °C -17.8 °C 0 hPa Calm     Humidity % 0 mm
00:01 27 °C 24.5 °C 1013.1 hPa SE 1.6 km/h 4.8 km/h 86 % 0 mm
00:06 27 °C 24.5 °C 1013.1 hPa Calm   3.2 km/h 86 % 0 mm
00:11 26.9 °C 24.4 °C 1013.1 hPa Calm   3.2 km/h 86 % 0 mm
00:16 26.9 °C 24.4 °C 1012.8 hPa South 1.6 km/h 3.2 km/h 86 % 0 mm
00:21 26.9 °C 24.4 °C 1012.8 hPa SSW 1.6 km/h 3.2 km/h 86 % 0 mm
00:26 26.9 °C 24.5 °C 1012.8 hPa Calm   3.2 km/h 87 % 0 mm
00:31 26.8 °C 24.3 °C 1012.8 hPa Calm   3.2 km/h 86 % 0 mm
00:36 26.7 °C 24.4 °C 1012.8 hPa South 1.6 km/h 3.2 km/h 87 % 0 mm
00:41 26.7 °C 24.4 °C 1012.8 hPa South 1.6 km/h 3.2 km/h 87 % 0 mm
00:46 26.7 °C 24.4 °C 1012.8 hPa South 1.6 km/h 3.2 km/h 87 % 0 mm
00:51 26.7 °C 24.4 °C 1012.8 hPa Calm   3.2 km/h 87 % 0 mm
00:56 26.6 °C 24.4 °C 1012.8 hPa Calm   1.6 km/h 88 % 0 mm
01:01 26.6 °C 24.4 °C 1012.8 hPa Calm   1.6 km/h 88 % 0 mm
01:06 26.5 °C 24.3 °C 1012.8 hPa Calm   1.6 km/h 88 % 0 mm
01:11 26.4 °C 24.2 °C 1012.8 hPa Calm   1.6 km/h 88 % 0 mm
01:16 26.4 °C 24.4 °C 1012.8 hPa Calm   1.6 km/h 89 % 0 mm
01:22 26.4 °C 24.4 °C 1012.8 hPa Calm   1.6 km/h 89 % 0 mm
01:27 26.4 °C 24.4 °C 1012.8 hPa Calm   1.6 km/h 89 % 0 mm
01:32 26.3 °C 24.3 °C 1012.8 hPa Calm   1.6 km/h 89 % 0 mm
01:37 26.3 °C 24.3 °C 1012.8 hPa Calm   1.6 km/h 89 % 0 mm
01:42 26.3 °C 24.3 °C 1012.8 hPa Calm   1.6 km/h 89 % 0 mm
01:47 26.3 °C 24.3 °C 1012.8 hPa Calm   1.6 km/h 89 % 0 mm
01:52 26.3 °C 24.3 °C 1012.8 hPa Calm   1.6 km/h 89 % 0 mm
01:57 26.2 °C 24.2 °C 1012.8 hPa Calm   1.6 km/h 89 % 0 mm
02:02 26.2 °C 24.4 °C 1012.8 hPa Calm     90 % 0 mm
02:07 26.2 °C 24.4 °C 1012.8 hPa Calm     90 % 0 mm
02:12 26.2 °C 24.4 °C 1012.8 hPa Calm     90 % 0 mm
02:17 26.1 °C 24.3 °C 1012.8 hPa Calm     90 % 0 mm
02:22 26.1 °C 24.3 °C 1012.4 hPa Calm     90 % 0 mm
02:27 26.1 °C 24.3 °C 1012.4 hPa Calm     90 % 0 mm
02:32 26.1 °C 24.5 °C 1012.4 hPa Calm     91 % 0 mm
02:37 26.1 °C 24.5 °C 1012.4 hPa Calm     91 % 0 mm
02:42 26.2 °C 24.6 °C 1012.4 hPa Calm     91 % 0 mm
02:47 26.2 °C 24.6 °C 1012.4 hPa Calm     91 % 0 mm
02:52 26.2 °C 24.6 °C 1012.4 hPa Calm     91 % 0 mm
02:57 26.2 °C 24.6 °C 1012.4 hPa Calm     91 % 0 mm
03:02 26.2 °C 24.6 °C 1012.1 hPa Calm     91 % 0 mm
03:07 26.1 °C 24.5 °C 1012.1 hPa Calm     91 % 0 mm
03:12 26.1 °C 24.5 °C 1012.1 hPa Calm     91 % 0 mm
03:17 26.1 °C 24.5 °C 1012.4 hPa Calm     91 % 0 mm
03:22 26.1 °C 24.5 °C 1012.4 hPa Calm   1.6 km/h 91 % 0 mm
03:27 26.1 °C 24.5 °C 1012.1 hPa SE 1.6 km/h 1.6 km/h 91 % 0 mm
03:32 26.1 °C 24.7 °C 1012.1 hPa Calm   1.6 km/h 92 % 0 mm
03:37 26.2 °C 24.6 °C 1012.1 hPa Calm   1.6 km/h 91 % 0 mm
03:42 26.2 °C 24.6 °C 1012.4 hPa Calm   1.6 km/h 91 % 0 mm
03:47 26.2 °C 24.6 °C 1012.4 hPa Calm   1.6 km/h 91 % 0 mm
03:52 26.2 °C 24.6 °C 1012.1 hPa Calm   1.6 km/h 91 % 0 mm
03:57 26.2 °C 24.6 °C 1012.1 hPa NW 1.6 km/h 3.2 km/h 91 % 0 mm
04:02 26.2 °C 24.6 °C 1012.1 hPa NW 1.6 km/h 4.8 km/h 91 % 0 mm
04:07 26.1 °C 24.5 °C 1012.1 hPa NW 1.6 km/h 4.8 km/h 91 % 0 mm
04:12 26 °C 24.4 °C 1012.1 hPa NW 3.2 km/h 4.8 km/h 91 % 0 mm
04:17 25.9 °C 24.3 °C 1012.1 hPa NW 3.2 km/h 6.4 km/h 91 % 0 mm
04:22 25.8 °C 24.4 °C 1012.1 hPa NW 3.2 km/h 6.4 km/h 92 % 0 mm
04:27 25.8 °C 24.4 °C 1012.1 hPa NW 1.6 km/h 6.4 km/h 92 % 0 mm
04:32 25.7 °C 24.3 °C 1012.1 hPa NW 3.2 km/h 4.8 km/h 92 % 0 mm
04:37 25.6 °C 24.4 °C 1012.1 hPa WNW 3.2 km/h 4.8 km/h 93 % 0 mm
04:42 25.6 °C 24.4 °C 1012.1 hPa NW 1.6 km/h 4.8 km/h 93 % 0 mm
04:47 25.6 °C 24.4 °C 1012.1 hPa Calm   4.8 km/h 93 % 0 mm
04:52 25.5 °C 24.3 °C 1012.1 hPa Calm   4.8 km/h 93 % 0 mm
04:57 25.5 °C 24.3 °C 1012.1 hPa Calm   4.8 km/h 93 % 0 mm
05:02 25.4 °C 24.2 °C 1012.1 hPa Calm   1.6 km/h 93 % 0 mm
05:07 25.3 °C 24.1 °C 1012.1 hPa Calm   1.6 km/h 93 % 0 mm
05:12 25.2 °C 24 °C 1012.1 hPa Calm     93 % 0 mm
05:17 25.1 °C 23.9 °C 1012.4 hPa Calm     93 % 0 mm
05:22 25.1 °C 23.9 °C 1012.4 hPa Calm     93 % 0 mm
05:27 25.1 °C 24.1 °C 1012.4 hPa Calm     94 % 0 mm
05:32 25 °C 24 °C 1012.4 hPa Calm     94 % 0 mm
05:37 24.9 °C 23.9 °C 1012.4 hPa Calm     94 % 0 mm
05:42 24.8 °C 23.8 °C 1012.4 hPa Calm     94 % 0 mm
05:47 24.7 °C 23.7 °C 1012.4 hPa Calm     94 % 0 mm
05:52 24.8 °C 23.8 °C 1012.4 hPa Calm     94 % 0 mm
05:57 24.8 °C 23.8 °C 1012.4 hPa Calm     94 % 0 mm
06:02 24.7 °C 23.7 °C 1012.4 hPa Calm     94 % 0 mm
06:07 24.7 °C 23.8 °C 1012.4 hPa Calm     95 % 0 mm
06:12 24.7 °C 23.8 °C 1012.4 hPa Calm     95 % 0 mm
06:17 24.7 °C 23.8 °C 1012.4 hPa Calm     95 % 0 mm
06:22 24.7 °C 23.8 °C 1012.4 hPa Calm   1.6 km/h 95 % 0 mm
06:27 24.7 °C 23.8 °C 1012.4 hPa Calm   1.6 km/h 95 % 0 mm
06:32 24.7 °C 23.8 °C 1012.4 hPa Calm   1.6 km/h 95 % 0 mm
06:37 24.6 °C 23.7 °C 1012.4 hPa Calm     95 % 0 mm
06:38 24.6 °C 23.7 °C 1012.4 hPa Calm     95 % 0 mm
06:44 24.6 °C 23.7 °C 1012.4 hPa Calm   1.6 km/h 95 % 0 mm
06:49 24.6 °C 23.7 °C 1012.4 hPa Calm   1.6 km/h 95 % 0 mm
06:54 24.7 °C 24 °C 1012.8 hPa Calm   1.6 km/h 96 % 0 mm
06:59 24.7 °C 24 °C 1012.8 hPa Calm   1.6 km/h 96 % 0 mm
07:04 24.7 °C 24 °C 1012.8 hPa Calm   1.6 km/h 96 % 0 mm
07:09 24.8 °C 24.1 °C 1012.4 hPa Calm   1.6 km/h 96 % 0 mm
07:14 24.8 °C 24.1 °C 1012.4 hPa Calm   1.6 km/h 96 % 0 mm
07:19 24.9 °C 24.2 °C 1012.4 hPa Calm     96 % 0 mm
07:24 25.2 °C 24.5 °C 1012.8 hPa Calm     96 % 0 mm
07:29 25.7 °C 25 °C 1012.8 hPa Calm     96 % 0 mm
07:34 25.9 °C 24.9 °C 1012.8 hPa Calm     94 % 0 mm
07:39 26.2 °C 25.3 °C 1012.8 hPa Calm   1.6 km/h 95 % 0 mm
07:44 26.5 °C 25.5 °C 1012.8 hPa Calm   1.6 km/h 94 % 0 mm
07:49 27.1 °C 26 °C 1012.8 hPa Calm   1.6 km/h 94 % 0 mm
07:54 27.6 °C 26.2 °C 1012.8 hPa Calm   1.6 km/h 92 % 0 mm
07:59 28.1 °C 26.1 °C 1013.1 hPa Calm   1.6 km/h 89 % 0 mm
08:04 28.4 °C 25.6 °C 1013.1 hPa Calm   1.6 km/h 85 % 0 mm
08:09 28.8 °C 25.8 °C 1013.1 hPa Calm   1.6 km/h 84 % 0 mm
08:14 28.9 °C 25.1 °C 1013.1 hPa NW 1.6 km/h 1.6 km/h 80 % 0 mm
08:16 28.8 °C 25 °C 1013.1 hPa Calm   1.6 km/h 80 % 0 mm
08:21 28.9 °C 25.1 °C 1013.1 hPa Calm   1.6 km/h 80 % 0 mm
08:26 29.3 °C 25.7 °C 1013.1 hPa Calm   1.6 km/h 81 % 0 mm
08:31 29.3 °C 25.3 °C 1013.1 hPa Calm   4.8 km/h 79 % 0 mm
08:36 29.3 °C 25.1 °C 1013.1 hPa NW 3.2 km/h 4.8 km/h 78 % 0 mm
08:41 28.9 °C 24.9 °C 1013.4 hPa NNW 3.2 km/h 6.4 km/h 79 % 0 mm
08:46 29 °C 24.8 °C 1013.4 hPa NNW 3.2 km/h 6.4 km/h 78 % 0 mm
08:51 29.2 °C 25.2 °C 1013.4 hPa Calm   6.4 km/h 79 % 0 mm
08:56 29.6 °C 25.4 °C 1013.4 hPa NNW 3.2 km/h 6.4 km/h 78 % 0 mm
09:01 29.6 °C 25.1 °C 1013.4 hPa Calm   6.4 km/h 77 % 0 mm
09:06 29.7 °C 25.2 °C 1013.4 hPa WNW 1.6 km/h 6.4 km/h 77 % 0 mm
09:11 29.7 °C 25 °C 1013.4 hPa WNW 3.2 km/h 6.4 km/h 76 % 0 mm
09:16 29.7 °C 25.2 °C 1013.4 hPa NNW 3.2 km/h 6.4 km/h 77 % 0 mm
09:21 29.8 °C 25.1 °C 1013.4 hPa Calm   6.4 km/h 76 % 0 mm
09:26 30.1 °C 25.4 °C 1013.8 hPa NW 1.6 km/h 6.4 km/h 76 % 0 mm
09:31 30.2 °C 25.5 °C 1013.8 hPa Calm   4.8 km/h 76 % 0 mm
09:36 30.6 °C 25.7 °C 1013.8 hPa North 3.2 km/h 4.8 km/h 75 % 0 mm
09:41 30.8 °C 25.6 °C 1013.8 hPa WNW 3.2 km/h 4.8 km/h 74 % 0 mm
09:46 30.6 °C 25.2 °C 1013.8 hPa Calm   6.4 km/h 73 % 0 mm
09:51 31.1 °C 26.1 °C 1013.8 hPa Calm   6.4 km/h 75 % 0 mm
09:56 31.7 °C 26 °C 1013.8 hPa ESE 3.2 km/h 6.4 km/h 72 % 0 mm
10:01 31.9 °C 25.7 °C 1013.8 hPa NNW 3.2 km/h 3.2 km/h 70 % 0 mm
10:06 32.1 °C 25.9 °C 1013.8 hPa North 3.2 km/h 4.8 km/h 70 % 0 mm
10:11 31.7 °C 25.1 °C 1013.8 hPa West 1.6 km/h 6.4 km/h 68 % 0 mm
10:16 31.2 °C 24.8 °C 1013.8 hPa NNW 4.8 km/h 6.4 km/h 69 % 0 mm
10:21 30.8 °C 24.9 °C 1013.8 hPa WNW 1.6 km/h 6.4 km/h 71 % 0 mm
10:26 30.7 °C 25.1 °C 1013.8 hPa NW 4.8 km/h 6.4 km/h 72 % 0 mm
10:31 30.7 °C 25.3 °C 1013.8 hPa North 3.2 km/h 6.4 km/h 73 % 0 mm
10:36 30.7 °C 25.1 °C 1013.8 hPa Calm   6.4 km/h 72 % 0 mm
10:41 30.9 °C 25.3 °C 1013.8 hPa Calm   6.4 km/h 72 % 0 mm
10:47 31.2 °C 25.1 °C 1013.8 hPa Calm   6.4 km/h 70 % 0 mm
10:52 31.4 °C 25.5 °C 1013.8 hPa NNW 3.2 km/h 4.8 km/h 71 % 0 mm
10:57 31.6 °C 25.5 °C 1013.8 hPa North 1.6 km/h 8 km/h 70 % 0 mm
11:02 31.8 °C 25.4 °C 1013.8 hPa ENE 1.6 km/h 8 km/h 69 % 0 mm
11:07 31.7 °C 25.1 °C 1013.8 hPa NE 1.6 km/h 8 km/h 68 % 0 mm
11:12 31.6 °C 25 °C 1014.1 hPa NNE 3.2 km/h 6.4 km/h 68 % 0 mm
11:17 31.6 °C 25.5 °C 1014.1 hPa East 1.6 km/h 6.4 km/h 70 % 0 mm
11:22 31.8 °C 25.4 °C 1013.8 hPa ENE 3.2 km/h 6.4 km/h 69 % 0 mm
11:27 31.8 °C 25.2 °C 1013.8 hPa Calm   6.4 km/h 68 % 0 mm
11:32 31.9 °C 25.7 °C 1013.8 hPa East 3.2 km/h 9.7 km/h 70 % 0 mm
11:37 31.9 °C 25.5 °C 1013.8 hPa East 3.2 km/h 9.7 km/h 69 % 0 mm
11:42 32.2 °C 25.5 °C 1013.8 hPa Calm   9.7 km/h 68 % 0 mm
11:47 32.5 °C 25.6 °C 1013.8 hPa NNW 3.2 km/h 9.7 km/h 67 % 0 mm
11:52 32.8 °C 25.6 °C 1013.8 hPa Calm   8 km/h 66 % 0 mm
11:57 32.9 °C 25.2 °C 1013.8 hPa NNW 1.6 km/h 8 km/h 64 % 0 mm
12:02 32.9 °C 25.4 °C 1013.8 hPa Calm   8 km/h 65 % 0 mm
12:07 33.4 °C 25.7 °C 1013.8 hPa NNE 1.6 km/h 8 km/h 64 % 0 mm
12:12 33.5 °C 26.3 °C 1013.8 hPa ESE 4.8 km/h 6.4 km/h 66 % 0 mm
12:17 33.1 °C 25.6 °C 1013.8 hPa WNW 3.2 km/h 11.3 km/h 65 % 0 mm
12:22 32.9 °C 25.2 °C 1013.8 hPa NE 1.6 km/h 11.3 km/h 64 % 0 mm
12:27 33.1 °C 25.6 °C 1013.4 hPa SSE 6.4 km/h 11.3 km/h 65 % 0 mm
12:32 33.1 °C 25.1 °C 1013.4 hPa ESE 3.2 km/h 12.9 km/h 63 % 0 mm
12:37 33.1 °C 24.8 °C 1013.4 hPa Calm   12.9 km/h 62 % 0 mm
12:42 33.4 °C 25.4 °C 1013.4 hPa SE 1.6 km/h 12.9 km/h 63 % 0 mm
12:47 33.6 °C 25.8 °C 1013.4 hPa SE 3.2 km/h 9.7 km/h 64 % 0 mm
12:51 33.7 °C 25.9 °C 1013.4 hPa North 1.6 km/h 9.7 km/h 64 % 0 mm
12:56 33.6 °C 25.3 °C 1013.4 hPa ENE 3.2 km/h 9.7 km/h 62 % 0 mm
13:01 33.4 °C 25.1 °C 1013.4 hPa East 4.8 km/h 9.7 km/h 62 % 0 mm
13:06 33.1 °C 25.6 °C 1013.1 hPa Calm   8 km/h 65 % 0 mm
13:11 33.7 °C 25.7 °C 1013.1 hPa NE 8 km/h 8 km/h 63 % 0 mm
13:16 33.7 °C 24.9 °C 1012.8 hPa ENE 3.2 km/h 11.3 km/h 60 % 0 mm
13:21 33.9 °C 25.6 °C 1013.1 hPa WNW 9.7 km/h 11.3 km/h 62 % 0 mm
13:26 34.2 °C 25.9 °C 1012.8 hPa East 3.2 km/h 11.3 km/h 62 % 0 mm
13:31 34.3 °C 25.1 °C 1013.1 hPa NNE 3.2 km/h 9.7 km/h 59 % 0 mm
13:36 34.2 °C 25.6 °C 1013.1 hPa SSE 1.6 km/h 9.7 km/h 61 % 0 mm
13:41 34.5 °C 25.3 °C 1012.8 hPa NE 3.2 km/h 9.7 km/h 59 % 0 mm
13:46 34.4 °C 24.3 °C 1012.8 hPa ESE 3.2 km/h 11.3 km/h 56 % 0 mm
13:51 34.2 °C 24.8 °C 1012.8 hPa ESE 8 km/h 12.9 km/h 58 % 0 mm
13:56 34.2 °C 25 °C 1012.8 hPa ENE 3.2 km/h 12.9 km/h 59 % 0 mm
14:01 34.1 °C 24.9 °C 1012.8 hPa ENE 4.8 km/h 12.9 km/h 59 % 0 mm
14:06 33.8 °C 24.7 °C 1012.8 hPa ESE 4.8 km/h 11.3 km/h 59 % 0 mm
14:11 34.1 °C 24.7 °C 1012.8 hPa ESE 4.8 km/h 11.3 km/h 58 % 0 mm
14:16 34 °C 24.6 °C 1012.8 hPa NE 1.6 km/h 12.9 km/h 58 % 0 mm
14:21 33.6 °C 25 °C 1012.8 hPa SE 4.8 km/h 12.9 km/h 61 % 0 mm
14:26 33 °C 25.5 °C 1012.8 hPa SE 14.5 km/h 19.3 km/h 65 % 0 mm
14:31 32.3 °C 25.4 °C 1012.8 hPa ESE 9.7 km/h 22.5 km/h 67 % 0 mm
14:37 32.1 °C 25.4 °C 1012.8 hPa SE 12.9 km/h 22.5 km/h 68 % 0 mm
14:42 31.7 °C 25.1 °C 1012.4 hPa SE 8 km/h 22.5 km/h 68 % 0 mm
14:47 31.6 °C 25.2 °C 1012.4 hPa ESE 12.9 km/h 20.9 km/h 69 % 0 mm
14:52 31.2 °C 25.1 °C 1012.4 hPa ESE 4.8 km/h 20.9 km/h 70 % 0 mm
14:57 31.2 °C 24.6 °C 1012.4 hPa ESE 8 km/h 16.1 km/h 68 % 0 mm
15:02 31.3 °C 24.7 °C 1012.4 hPa SSE 3.2 km/h 16.1 km/h 68 % 0 mm
15:07 31.8 °C 24.4 °C 1012.1 hPa ESE 8 km/h 14.5 km/h 65 % 0 mm
15:12 32.4 °C 24.2 °C 1012.1 hPa SE 9.7 km/h 14.5 km/h 62 % 0 mm
15:17 32.9 °C 24.4 °C 1012.1 hPa SE 11.3 km/h 14.5 km/h 61 % 0 mm
15:27 33.7 °C 26.2 °C 1012.1 hPa ESE 14.5 km/h 14.5 km/h 65 % 0 mm
15:32 33.3 °C 25.3 °C 1012.1 hPa SSE 1.6 km/h 14.5 km/h 63 % 0 mm
15:37 33.3 °C 25.3 °C 1012.1 hPa SSE 11.3 km/h 14.5 km/h 63 % 0 mm
15:42 32.9 °C 25.2 °C 1012.1 hPa ENE 8 km/h 19.3 km/h 64 % 0 mm
15:47 32.8 °C 25.6 °C 1011.7 hPa East 8 km/h 19.3 km/h 66 % 0 mm
15:52 32.8 °C 25.6 °C 1011.7 hPa SSE 4.8 km/h 19.3 km/h 66 % 0 mm
15:57 32.9 °C 26 °C 1011.7 hPa ESE 14.5 km/h 17.7 km/h 67 % 0 mm
16:02 33.1 °C 25.9 °C 1011.7 hPa ESE 6.4 km/h 17.7 km/h 66 % 0 mm
16:07 32.9 °C 25.7 °C 1011.7 hPa SE 4.8 km/h 17.7 km/h 66 % 0 mm
16:12 32.8 °C 25.6 °C 1011.7 hPa SE 8 km/h 17.7 km/h 66 % 0 mm
16:17 32.8 °C 25.3 °C 1011.7 hPa SSE 11.3 km/h 17.7 km/h 65 % 0 mm
16:22 32.6 °C 25.2 °C 1011.7 hPa SW 12.9 km/h 17.7 km/h 65 % 0 mm
16:27 32.5 °C 24.8 °C 1011.7 hPa SE 6.4 km/h 17.7 km/h 64 % 0 mm
16:32 32.2 °C 24.5 °C 1011.7 hPa SSE 12.9 km/h 17.7 km/h 64 % 0 mm
16:37 32.1 °C 24.7 °C 1011.7 hPa SE 9.7 km/h 17.7 km/h 65 % 0 mm
16:42 32.1 °C 24.7 °C 1011.7 hPa SSE 11.3 km/h 17.7 km/h 65 % 0 mm
16:47 32.3 °C 25.1 °C 1011.4 hPa SE 8 km/h 17.7 km/h 66 % 0 mm
16:52 32.5 °C 25.1 °C 1011.4 hPa SSE 3.2 km/h 16.1 km/h 65 % 0 mm
16:57 32.7 °C 25.5 °C 1011.4 hPa SSE 3.2 km/h 16.1 km/h 66 % 0 mm
16:59 32.7 °C 25.5 °C 1011.4 hPa SE 8 km/h 16.1 km/h 66 % 0 mm
17:04 32.7 °C 25.5 °C 1011.4 hPa SSE 11.3 km/h 16.1 km/h 66 % 0 mm
17:10 32.8 °C 25.6 °C 1011.4 hPa SSE 14.5 km/h 17.7 km/h 66 % 0 mm
17:15 32.8 °C 25.6 °C 1011.4 hPa ESE 6.4 km/h 19.3 km/h 66 % 0 mm
17:16 32.9 °C 25.7 °C 1011.4 hPa SE 11.3 km/h 19.3 km/h 66 % 0 mm
17:21 32.8 °C 25.3 °C 1011.4 hPa SSE 4.8 km/h 19.3 km/h 65 % 0 mm
17:26 32.4 °C 24.7 °C 1011.4 hPa ESE 8 km/h 19.3 km/h 64 % 0 mm
17:31 32.5 °C 24.8 °C 1011.4 hPa NE 3.2 km/h 20.9 km/h 64 % 0 mm
17:36 32.4 °C 25 °C 1011.4 hPa SSE 11.3 km/h 20.9 km/h 65 % 0 mm
17:41 32.3 °C 24.6 °C 1011.4 hPa SE 12.9 km/h 20.9 km/h 64 % 0 mm
17:46 32.4 °C 24.7 °C 1011.1 hPa SSE 3.2 km/h 14.5 km/h 64 % 0 mm
17:51 32.3 °C 24.6 °C 1011.4 hPa East 6.4 km/h 14.5 km/h 64 % 0 mm
17:57 32.3 °C 24.9 °C 1011.4 hPa East 11.3 km/h 16.1 km/h 65 % 0 mm
18:02 32.4 °C 25 °C 1011.4 hPa SW 3.2 km/h 16.1 km/h 65 % 0 mm
18:07 32.3 °C 24.9 °C 1011.7 hPa SE 8 km/h 16.1 km/h 65 % 0 mm
18:12 32.3 °C 24.9 °C 1011.7 hPa South 3.2 km/h 14.5 km/h 65 % 0 mm
18:17 32.3 °C 24.9 °C 1011.7 hPa ESE 9.7 km/h 16.1 km/h 65 % 0 mm
18:22 32.3 °C 24.9 °C 1011.7 hPa SSE 6.4 km/h 16.1 km/h 65 % 0 mm
18:27 32.2 °C 25 °C 1011.7 hPa ESE 11.3 km/h 17.7 km/h 66 % 0 mm
18:32 32.1 °C 24.7 °C 1011.7 hPa East 8 km/h 19.3 km/h 65 % 0 mm
18:37 31.9 °C 24.8 °C 1011.7 hPa SSE 4.8 km/h 19.3 km/h 66 % 0 mm
18:42 31.7 °C 24.8 °C 1011.7 hPa South 9.7 km/h 19.3 km/h 67 % 0 mm
18:47 31.6 °C 24.7 °C 1011.7 hPa ESE 11.3 km/h 16.1 km/h 67 % 0 mm
18:52 31.3 °C 24.4 °C 1011.7 hPa South 8 km/h 16.1 km/h 67 % 0 mm
18:57 31.3 °C 24.4 °C 1011.7 hPa East 12.9 km/h 16.1 km/h 67 % 0 mm
19:02 31.2 °C 24.6 °C 1011.7 hPa ESE 8 km/h 16.1 km/h 68 % 0 mm
19:07 31.1 °C 24.5 °C 1012.1 hPa South 6.4 km/h 16.1 km/h 68 % 0 mm
19:12 30.9 °C 24.5 °C 1012.1 hPa SE 4.8 km/h 16.1 km/h 69 % 0 mm
19:17 30.9 °C 24.8 °C 1012.1 hPa SE 8 km/h 12.9 km/h 70 % 0 mm
19:22 30.7 °C 24.6 °C 1012.1 hPa SSW 3.2 km/h 16.1 km/h 70 % 0 mm
19:27 30.7 °C 24.8 °C 1012.1 hPa SSE 4.8 km/h 16.1 km/h 71 % 0 mm
19:32 30.6 °C 24.7 °C 1012.1 hPa SE 4.8 km/h 16.1 km/h 71 % 0 mm
19:37 30.4 °C 24.8 °C 1012.1 hPa East 6.4 km/h 14.5 km/h 72 % 0 mm
19:42 30.4 °C 24.8 °C 1011.7 hPa ENE 3.2 km/h 11.3 km/h 72 % 0 mm
19:47 30.3 °C 24.7 °C 1011.7 hPa SE 3.2 km/h 11.3 km/h 72 % 0 mm
19:52 30.3 °C 24.7 °C 1012.1 hPa ESE 8 km/h 11.3 km/h 72 % 0 mm
19:57 30.3 °C 24.7 °C 1012.1 hPa SSE 4.8 km/h 11.3 km/h 72 % 0 mm
20:02 30.2 °C 24.6 °C 1012.1 hPa SSE 3.2 km/h 11.3 km/h 72 % 0 mm
20:07 30.2 °C 24.8 °C 1012.1 hPa SSW 1.6 km/h 11.3 km/h 73 % 0 mm
20:12 29.9 °C 24.8 °C 1012.1 hPa SSW 1.6 km/h 8 km/h 74 % 0 mm
20:17 29.8 °C 24.7 °C 1012.1 hPa SSE 1.6 km/h 8 km/h 74 % 0 mm
20:22 29.8 °C 24.9 °C 1011.7 hPa SSE 4.8 km/h 6.4 km/h 75 % 0 mm
20:27 29.8 °C 24.9 °C 1011.7 hPa Calm   6.4 km/h 75 % 0 mm
20:32 29.8 °C 24.9 °C 1011.7 hPa Calm   6.4 km/h 75 % 0 mm
20:37 29.7 °C 24.8 °C 1012.1 hPa Calm   6.4 km/h 75 % 0 mm
20:42 29.7 °C 25 °C 1012.1 hPa Calm   6.4 km/h 76 % 0 mm
20:47 29.6 °C 24.9 °C 1012.1 hPa Calm   4.8 km/h 76 % 0 mm
20:52 29.6 °C 24.9 °C 1012.1 hPa SE 1.6 km/h 4.8 km/h 76 % 0 mm
20:57 29.6 °C 25.1 °C 1012.1 hPa Calm   4.8 km/h 77 % 0 mm
21:02 29.5 °C 25 °C 1012.1 hPa Calm   4.8 km/h 77 % 0 mm
21:07 29.4 °C 24.9 °C 1012.1 hPa Calm   4.8 km/h 77 % 0 mm
21:10 29.4 °C 24.9 °C 1012.1 hPa Calm   4.8 km/h 77 % 0 mm
21:15 29.3 °C 24.8 °C 1012.4 hPa SE 1.6 km/h 3.2 km/h 77 % 0 mm
21:20 29.3 °C 25.1 °C 1012.4 hPa Calm   1.6 km/h 78 % 0 mm
21:25 29.3 °C 25.1 °C 1012.4 hPa East 1.6 km/h 1.6 km/h 78 % 0 mm
21:30 29.3 °C 25.1 °C 1012.4 hPa ESE 1.6 km/h 3.2 km/h 78 % 0 mm
21:35 29.3 °C 25.1 °C 1012.4 hPa ESE 4.8 km/h 4.8 km/h 78 % 0 mm
21:40 29.2 °C 25 °C 1012.4 hPa Calm   6.4 km/h 78 % 0 mm
21:45 29.2 °C 25 °C 1012.4 hPa Calm   6.4 km/h 78 % 0 mm
21:50 29.1 °C 25.1 °C 1012.4 hPa Calm   6.4 km/h 79 % 0 mm
21:55 29.1 °C 25.1 °C 1012.4 hPa Calm   4.8 km/h 79 % 0 mm
22:00 29 °C 25 °C 1012.4 hPa Calm   3.2 km/h 79 % 0 mm
22:05 28.8 °C 25 °C 1012.8 hPa South 1.6 km/h 3.2 km/h 80 % 0 mm
22:10 28.7 °C 25.1 °C 1012.8 hPa SSW 3.2 km/h 3.2 km/h 81 % 0 mm
22:15 28.6 °C 25 °C 1012.8 hPa SSW 1.6 km/h 6.4 km/h 81 % 0 mm
22:20 28.6 °C 25 °C 1013.1 hPa South 3.2 km/h 6.4 km/h 81 % 0 mm
22:25 28.6 °C 25 °C 1013.1 hPa South 1.6 km/h 6.4 km/h 81 % 0 mm
22:30 28.6 °C 25 °C 1013.1 hPa SSW 3.2 km/h 6.4 km/h 81 % 0 mm
22:35 28.5 °C 24.9 °C 1013.1 hPa SSE 4.8 km/h 6.4 km/h 81 % 0 mm
22:40 28.6 °C 25 °C 1013.1 hPa SE 1.6 km/h 6.4 km/h 81 % 0 mm
22:45 28.6 °C 25 °C 1013.4 hPa Calm   6.4 km/h 81 % 0 mm
22:50 28.5 °C 24.9 °C 1013.4 hPa East 3.2 km/h 6.4 km/h 81 % 0 mm
22:55 28.4 °C 24.8 °C 1013.4 hPa South 1.6 km/h 6.4 km/h 81 % 0 mm
23:00 28.4 °C 24.8 °C 1013.4 hPa Calm   6.4 km/h 81 % 0 mm
23:05 28.3 °C 24.7 °C 1013.8 hPa Calm   6.4 km/h 81 % 0 mm
23:10 28.2 °C 24.8 °C 1013.8 hPa Calm   6.4 km/h 82 % 0 mm
23:15 28.2 °C 24.8 °C 1013.8 hPa Calm   8 km/h 82 % 0 mm
23:20 28.3 °C 24.9 °C 1013.8 hPa Calm   8 km/h 82 % 0 mm
23:25 28.2 °C 24.8 °C 1013.8 hPa Calm   8 km/h 82 % 0 mm
23:30 28.2 °C 24.8 °C 1013.8 hPa Calm   6.4 km/h 82 % 0 mm
23:35 28.1 °C 24.9 °C 1013.8 hPa Calm   4.8 km/h 83 % 0 mm
23:36 28.1 °C 24.9 °C 1014.1 hPa SSW 3.2 km/h 4.8 km/h 83 % 0 mm
23:41 27.9 °C 24.7 °C 1014.1 hPa South 3.2 km/h 3.2 km/h 83 % 0 mm
23:46 27.8 °C 24.8 °C 1014.1 hPa SSW 1.6 km/h 3.2 km/h 84 % 0 mm
23:51 27.7 °C 24.7 °C 1014.1 hPa Calm   3.2 km/h 84 % 0 mm
23:56 27.6 °C 24.6 °C 1014.1 hPa Calm   3.2 km/h 84 % 0 mm
Spring, Texas: Villages of Bridgestone
Compliments of Weather Underground - 2.75 mb

Script developed by  Jim McMurry - jmcmurry@mwt.net Adapted for the template by  Wim van der Kuil - Leuven-Template.eu

You find our weather info also at:

UK Metoffice

WeatherCloud

Weather Underground

Mid-South Weather Network

AWEKAS

Citizen Weather Observer Program (CWOP)

HAMweather, WeatherForYou, PWS Weather

Equipment we use:

Weather-station
Davis Vantage Vue

Weather-program
Meteohub

Weather-server
Debian 7.9 x86 (Guest)

Provider
DreamHost

Davis Vantage Vue

Meteohub

Debian 7.9 x86 (Guest)

DreamHost